Location: *
(46.3500°N, 10.9000°E)
Time: 21:13:31
(UTC+00:00)

A-11 Canister half - Pass Details

Date: 27 April 2021
Orbit: 1526 x 1682 km, 47.3° (Epoch: 13 May)

Event Time Altitude Azimuth Distance (km) Brightness Sun altitude
Rises 14:53:31 0° 263° (W) 4,860 12.6 34.1°
Reaches altitude 10° 14:56:37 10° 265° (W) 3,891 12.5 33.6°
Maximum altitude 15:06:42 86° 355° (N) 1,683 9.8 31.9°
Drops below altitude 10° 15:16:56 10° 85° (E) 3,947 10.7 30.2°
Sets 15:20:06 0° 86° (E) 4,932 11.1 29.7°
